Orbital Elements
Epoch 2025 Oct. 12.0 TT = JDT 2460960.5
T 2025 Sept. 26.32553 TT Rudenko
q 0.5241655 (2000.0) P Q
n 0.21121231 Peri. 210.70732 -0.27662166 -0.87903121
a 2.7924789 Node 257.81646 +0.94250549 -0.16931899
e 0.8122938 Incl. 23.40684 +0.18752028 -0.44568510
P 4.67
From 154 observations 2016 May 11-2021 Jan. 19, mean residual 1".9.
|